Index of /20260502/WXO-DD/model_rdps/10km/06/034
Name Last modified Size Description
Parent Directory -
20260502T06Z_MSC_RDPS_AbsoluteVorticity_IsbL-0250_RLatLon0.09_PT034H.grib2 2026-05-02 08:48 618K
20260502T06Z_MSC_RDPS_AbsoluteVorticity_IsbL-0500_RLatLon0.09_PT034H.grib2 2026-05-02 08:48 693K
20260502T06Z_MSC_RDPS_AbsoluteVorticity_IsbL-0700_RLatLon0.09_PT034H.grib2 2026-05-02 08:48 619K
20260502T06Z_MSC_RDPS_AbsoluteVorticity_IsbL-0850_RLatLon0.09_PT034H.grib2 2026-05-02 08:48 791K
20260502T06Z_MSC_RDPS_AirTemp_AGL-120m_RLatLon0.09_PT034H.grib2 2026-05-02 08:48 399K
20260502T06Z_MSC_RDPS_AirTemp_AGL-2m_RLatLon0.09_PT034H.grib2 2026-05-02 08:48 638K
20260502T06Z_MSC_RDPS_AirTemp_AGL-40m_RLatLon0.09_PT034H.grib2 2026-05-02 08:48 410K
20260502T06Z_MSC_RDPS_AirTemp_AGL-80m_RLatLon0.09_PT034H.grib2 2026-05-02 08:48 404K
20260502T06Z_MSC_RDPS_AirTemp_IsbL-0001_RLatLon0.09_PT034H.grib2 2026-05-02 08:48 323K
20260502T06Z_MSC_RDPS_AirTemp_IsbL-0005_RLatLon0.09_PT034H.grib2 2026-05-02 08:48 287K
20260502T06Z_MSC_RDPS_AirTemp_IsbL-0010_RLatLon0.09_PT034H.grib2 2026-05-02 08:48 298K
20260502T06Z_MSC_RDPS_AirTemp_IsbL-0020_RLatLon0.09_PT034H.grib2 2026-05-02 08:48 412K
20260502T06Z_MSC_RDPS_AirTemp_IsbL-0030_RLatLon0.09_PT034H.grib2 2026-05-02 08:48 339K
20260502T06Z_MSC_RDPS_AirTemp_IsbL-0050_RLatLon0.09_PT034H.grib2 2026-05-02 08:48 316K
20260502T06Z_MSC_RDPS_AirTemp_IsbL-0100_RLatLon0.09_PT034H.grib2 2026-05-02 08:48 425K
20260502T06Z_MSC_RDPS_AirTemp_IsbL-0150_RLatLon0.09_PT034H.grib2 2026-05-02 08:48 418K
20260502T06Z_MSC_RDPS_AirTemp_IsbL-0175_RLatLon0.09_PT034H.grib2 2026-05-02 08:48 407K
20260502T06Z_MSC_RDPS_AirTemp_IsbL-0200_RLatLon0.09_PT034H.grib2 2026-05-02 08:48 413K
20260502T06Z_MSC_RDPS_AirTemp_IsbL-0225_RLatLon0.09_PT034H.grib2 2026-05-02 08:48 418K
20260502T06Z_MSC_RDPS_AirTemp_IsbL-0250_RLatLon0.09_PT034H.grib2 2026-05-02 08:48 424K
20260502T06Z_MSC_RDPS_AirTemp_IsbL-0275_RLatLon0.09_PT034H.grib2 2026-05-02 08:48 404K
20260502T06Z_MSC_RDPS_AirTemp_IsbL-0300_RLatLon0.09_PT034H.grib2 2026-05-02 08:48 411K
20260502T06Z_MSC_RDPS_AirTemp_IsbL-0350_RLatLon0.09_PT034H.grib2 2026-05-02 08:48 424K
20260502T06Z_MSC_RDPS_AirTemp_IsbL-0400_RLatLon0.09_PT034H.grib2 2026-05-02 08:48 425K
20260502T06Z_MSC_RDPS_AirTemp_IsbL-0450_RLatLon0.09_PT034H.grib2 2026-05-02 08:48 431K
20260502T06Z_MSC_RDPS_AirTemp_IsbL-0500_RLatLon0.09_PT034H.grib2 2026-05-02 08:48 407K
20260502T06Z_MSC_RDPS_AirTemp_IsbL-0550_RLatLon0.09_PT034H.grib2 2026-05-02 08:48 424K
20260502T06Z_MSC_RDPS_AirTemp_IsbL-0600_RLatLon0.09_PT034H.grib2 2026-05-02 08:48 438K
20260502T06Z_MSC_RDPS_AirTemp_IsbL-0650_RLatLon0.09_PT034H.grib2 2026-05-02 08:48 453K
20260502T06Z_MSC_RDPS_AirTemp_IsbL-0700_RLatLon0.09_PT034H.grib2 2026-05-02 08:48 481K
20260502T06Z_MSC_RDPS_AirTemp_IsbL-0750_RLatLon0.09_PT034H.grib2 2026-05-02 08:48 521K
20260502T06Z_MSC_RDPS_AirTemp_IsbL-0800_RLatLon0.09_PT034H.grib2 2026-05-02 08:48 575K
20260502T06Z_MSC_RDPS_AirTemp_IsbL-0850_RLatLon0.09_PT034H.grib2 2026-05-02 08:48 509K
20260502T06Z_MSC_RDPS_AirTemp_IsbL-0875_RLatLon0.09_PT034H.grib2 2026-05-02 08:48 530K
20260502T06Z_MSC_RDPS_AirTemp_IsbL-0900_RLatLon0.09_PT034H.grib2 2026-05-02 08:48 540K
20260502T06Z_MSC_RDPS_AirTemp_IsbL-0925_RLatLon0.09_PT034H.grib2 2026-05-02 08:48 533K
20260502T06Z_MSC_RDPS_AirTemp_IsbL-0950_RLatLon0.09_PT034H.grib2 2026-05-02 08:48 536K
20260502T06Z_MSC_RDPS_AirTemp_IsbL-0970_RLatLon0.09_PT034H.grib2 2026-05-02 08:48 531K
20260502T06Z_MSC_RDPS_AirTemp_IsbL-0985_RLatLon0.09_PT034H.grib2 2026-05-02 08:48 521K
20260502T06Z_MSC_RDPS_AirTemp_IsbL-1000_RLatLon0.09_PT034H.grib2 2026-05-02 08:48 506K
20260502T06Z_MSC_RDPS_AirTemp_IsbL-1015_RLatLon0.09_PT034H.grib2 2026-05-02 08:48 507K
20260502T06Z_MSC_RDPS_Albedo_Sfc_RLatLon0.09_PT034H.grib2 2026-05-02 08:48 158K
20260502T06Z_MSC_RDPS_CAPE_Sfc_RLatLon0.09_PT034H.grib2 2026-05-02 08:48 1.7M
20260502T06Z_MSC_RDPS_CIN_Sfc_RLatLon0.09_PT034H.grib2 2026-05-02 08:48 1.1M
20260502T06Z_MSC_RDPS_CloudWater_EAtm_RLatLon0.09_PT034H.grib2 2026-05-02 08:48 219K
20260502T06Z_MSC_RDPS_ConvectivePrecip-Accum_Sfc_RLatLon0.09_PT034H.grib2 2026-05-02 08:48 1.0M
20260502T06Z_MSC_RDPS_DewPointDepression_AGL-2m_RLatLon0.09_PT034H.grib2 2026-05-02 08:48 426K
20260502T06Z_MSC_RDPS_DewPointDepression_IsbL-0001_RLatLon0.09_PT034H.grib2 2026-05-02 08:48 193
20260502T06Z_MSC_RDPS_DewPointDepression_IsbL-0005_RLatLon0.09_PT034H.grib2 2026-05-02 08:48 193
20260502T06Z_MSC_RDPS_DewPointDepression_IsbL-0010_RLatLon0.09_PT034H.grib2 2026-05-02 08:48 193
20260502T06Z_MSC_RDPS_DewPointDepression_IsbL-0020_RLatLon0.09_PT034H.grib2 2026-05-02 08:48 193
20260502T06Z_MSC_RDPS_DewPointDepression_IsbL-0030_RLatLon0.09_PT034H.grib2 2026-05-02 08:48 193
20260502T06Z_MSC_RDPS_DewPointDepression_IsbL-0050_RLatLon0.09_PT034H.grib2 2026-05-02 08:48 75K
20260502T06Z_MSC_RDPS_DewPointDepression_IsbL-0100_RLatLon0.09_PT034H.grib2 2026-05-02 08:48 120K
20260502T06Z_MSC_RDPS_DewPointDepression_IsbL-0150_RLatLon0.09_PT034H.grib2 2026-05-02 08:48 151K
20260502T06Z_MSC_RDPS_DewPointDepression_IsbL-0175_RLatLon0.09_PT034H.grib2 2026-05-02 08:48 185K
20260502T06Z_MSC_RDPS_DewPointDepression_IsbL-0200_RLatLon0.09_PT034H.grib2 2026-05-02 08:48 221K
20260502T06Z_MSC_RDPS_DewPointDepression_IsbL-0225_RLatLon0.09_PT034H.grib2 2026-05-02 08:48 261K
20260502T06Z_MSC_RDPS_DewPointDepression_IsbL-0250_RLatLon0.09_PT034H.grib2 2026-05-02 08:48 296K
20260502T06Z_MSC_RDPS_DewPointDepression_IsbL-0275_RLatLon0.09_PT034H.grib2 2026-05-02 08:48 307K
20260502T06Z_MSC_RDPS_DewPointDepression_IsbL-0300_RLatLon0.09_PT034H.grib2 2026-05-02 08:48 326K
20260502T06Z_MSC_RDPS_DewPointDepression_IsbL-0350_RLatLon0.09_PT034H.grib2 2026-05-02 08:48 332K
20260502T06Z_MSC_RDPS_DewPointDepression_IsbL-0400_RLatLon0.09_PT034H.grib2 2026-05-02 08:48 340K
20260502T06Z_MSC_RDPS_DewPointDepression_IsbL-0450_RLatLon0.09_PT034H.grib2 2026-05-02 08:48 342K
20260502T06Z_MSC_RDPS_DewPointDepression_IsbL-0500_RLatLon0.09_PT034H.grib2 2026-05-02 08:48 347K
20260502T06Z_MSC_RDPS_DewPointDepression_IsbL-0550_RLatLon0.09_PT034H.grib2 2026-05-02 08:48 357K
20260502T06Z_MSC_RDPS_DewPointDepression_IsbL-0600_RLatLon0.09_PT034H.grib2 2026-05-02 08:48 363K
20260502T06Z_MSC_RDPS_DewPointDepression_IsbL-0650_RLatLon0.09_PT034H.grib2 2026-05-02 08:48 370K
20260502T06Z_MSC_RDPS_DewPointDepression_IsbL-0700_RLatLon0.09_PT034H.grib2 2026-05-02 08:48 384K
20260502T06Z_MSC_RDPS_DewPointDepression_IsbL-0750_RLatLon0.09_PT034H.grib2 2026-05-02 08:48 406K
20260502T06Z_MSC_RDPS_DewPointDepression_IsbL-0800_RLatLon0.09_PT034H.grib2 2026-05-02 08:48 444K
20260502T06Z_MSC_RDPS_DewPointDepression_IsbL-0850_RLatLon0.09_PT034H.grib2 2026-05-02 08:48 478K
20260502T06Z_MSC_RDPS_DewPointDepression_IsbL-0875_RLatLon0.09_PT034H.grib2 2026-05-02 08:48 479K
20260502T06Z_MSC_RDPS_DewPointDepression_IsbL-0900_RLatLon0.09_PT034H.grib2 2026-05-02 08:48 469K
20260502T06Z_MSC_RDPS_DewPointDepression_IsbL-0925_RLatLon0.09_PT034H.grib2 2026-05-02 08:48 456K
20260502T06Z_MSC_RDPS_DewPointDepression_IsbL-0950_RLatLon0.09_PT034H.grib2 2026-05-02 08:48 455K
20260502T06Z_MSC_RDPS_DewPointDepression_IsbL-0970_RLatLon0.09_PT034H.grib2 2026-05-02 08:48 450K
20260502T06Z_MSC_RDPS_DewPointDepression_IsbL-0985_RLatLon0.09_PT034H.grib2 2026-05-02 08:48 446K
20260502T06Z_MSC_RDPS_DewPointDepression_IsbL-1000_RLatLon0.09_PT034H.grib2 2026-05-02 08:48 442K
20260502T06Z_MSC_RDPS_DewPointDepression_IsbL-1015_RLatLon0.09_PT034H.grib2 2026-05-02 08:48 435K
20260502T06Z_MSC_RDPS_DewPoint_AGL-2m_RLatLon0.09_PT034H.grib2 2026-05-02 08:48 408K
20260502T06Z_MSC_RDPS_DownwardLongwaveRadiationFlux-Accum_Sfc_RLatLon0.09_PT034H.grib2 2026-05-02 08:48 370K
20260502T06Z_MSC_RDPS_DownwardShortwaveRadiationFlux-Accum_NTAtm_RLatLon0.09_PT034H.grib2 2026-05-02 08:48 127K
20260502T06Z_MSC_RDPS_DownwardShortwaveRadiationFlux-Accum_Sfc_RLatLon0.09_PT034H.grib2 2026-05-02 08:48 545K
20260502T06Z_MSC_RDPS_FreezingRain-Accum1h_Sfc_RLatLon0.09_PT034H.grib2 2026-05-02 08:48 20K
20260502T06Z_MSC_RDPS_FreezingRain-Accum_Sfc_RLatLon0.09_PT034H.grib2 2026-05-02 08:48 134K
20260502T06Z_MSC_RDPS_GeopotentialHeight_IsbL-0001_RLatLon0.09_PT034H.grib2 2026-05-02 08:48 349K
20260502T06Z_MSC_RDPS_GeopotentialHeight_IsbL-0005_RLatLon0.09_PT034H.grib2 2026-05-02 08:48 303K
20260502T06Z_MSC_RDPS_GeopotentialHeight_IsbL-0010_RLatLon0.09_PT034H.grib2 2026-05-02 08:48 304K
20260502T06Z_MSC_RDPS_GeopotentialHeight_IsbL-0020_RLatLon0.09_PT034H.grib2 2026-05-02 08:48 400K
20260502T06Z_MSC_RDPS_GeopotentialHeight_IsbL-0030_RLatLon0.09_PT034H.grib2 2026-05-02 08:48 403K
20260502T06Z_MSC_RDPS_GeopotentialHeight_IsbL-0050_RLatLon0.09_PT034H.grib2 2026-05-02 08:48 310K
20260502T06Z_MSC_RDPS_GeopotentialHeight_IsbL-0100_RLatLon0.09_PT034H.grib2 2026-05-02 08:48 285K
20260502T06Z_MSC_RDPS_GeopotentialHeight_IsbL-0150_RLatLon0.09_PT034H.grib2 2026-05-02 08:48 229K
20260502T06Z_MSC_RDPS_GeopotentialHeight_IsbL-0175_RLatLon0.09_PT034H.grib2 2026-05-02 08:48 231K
20260502T06Z_MSC_RDPS_GeopotentialHeight_IsbL-0200_RLatLon0.09_PT034H.grib2 2026-05-02 08:48 263K
20260502T06Z_MSC_RDPS_GeopotentialHeight_IsbL-0225_RLatLon0.09_PT034H.grib2 2026-05-02 08:48 264K
20260502T06Z_MSC_RDPS_GeopotentialHeight_IsbL-0250_RLatLon0.09_PT034H.grib2 2026-05-02 08:48 264K
20260502T06Z_MSC_RDPS_GeopotentialHeight_IsbL-0275_RLatLon0.09_PT034H.grib2 2026-05-02 08:48 235K
20260502T06Z_MSC_RDPS_GeopotentialHeight_IsbL-0300_RLatLon0.09_PT034H.grib2 2026-05-02 08:48 234K
20260502T06Z_MSC_RDPS_GeopotentialHeight_IsbL-0350_RLatLon0.09_PT034H.grib2 2026-05-02 08:48 230K
20260502T06Z_MSC_RDPS_GeopotentialHeight_IsbL-0400_RLatLon0.09_PT034H.grib2 2026-05-02 08:48 226K
20260502T06Z_MSC_RDPS_GeopotentialHeight_IsbL-0450_RLatLon0.09_PT034H.grib2 2026-05-02 08:48 296K
20260502T06Z_MSC_RDPS_GeopotentialHeight_IsbL-0500_RLatLon0.09_PT034H.grib2 2026-05-02 08:48 291K
20260502T06Z_MSC_RDPS_GeopotentialHeight_IsbL-0550_RLatLon0.09_PT034H.grib2 2026-05-02 08:48 287K
20260502T06Z_MSC_RDPS_GeopotentialHeight_IsbL-0600_RLatLon0.09_PT034H.grib2 2026-05-02 08:48 285K
20260502T06Z_MSC_RDPS_GeopotentialHeight_IsbL-0650_RLatLon0.09_PT034H.grib2 2026-05-02 08:48 282K
20260502T06Z_MSC_RDPS_GeopotentialHeight_IsbL-0700_RLatLon0.09_PT034H.grib2 2026-05-02 08:48 254K
20260502T06Z_MSC_RDPS_GeopotentialHeight_IsbL-0750_RLatLon0.09_PT034H.grib2 2026-05-02 08:48 257K
20260502T06Z_MSC_RDPS_GeopotentialHeight_IsbL-0800_RLatLon0.09_PT034H.grib2 2026-05-02 08:48 350K
20260502T06Z_MSC_RDPS_GeopotentialHeight_IsbL-0850_RLatLon0.09_PT034H.grib2 2026-05-02 08:48 359K
20260502T06Z_MSC_RDPS_GeopotentialHeight_IsbL-0875_RLatLon0.09_PT034H.grib2 2026-05-02 08:48 364K
20260502T06Z_MSC_RDPS_GeopotentialHeight_IsbL-0900_RLatLon0.09_PT034H.grib2 2026-05-02 08:48 368K
20260502T06Z_MSC_RDPS_GeopotentialHeight_IsbL-0925_RLatLon0.09_PT034H.grib2 2026-05-02 08:48 372K
20260502T06Z_MSC_RDPS_GeopotentialHeight_IsbL-0950_RLatLon0.09_PT034H.grib2 2026-05-02 08:48 374K
20260502T06Z_MSC_RDPS_GeopotentialHeight_IsbL-0970_RLatLon0.09_PT034H.grib2 2026-05-02 08:48 380K
20260502T06Z_MSC_RDPS_GeopotentialHeight_IsbL-0985_RLatLon0.09_PT034H.grib2 2026-05-02 08:48 389K
20260502T06Z_MSC_RDPS_GeopotentialHeight_IsbL-1000_RLatLon0.09_PT034H.grib2 2026-05-02 08:48 403K
20260502T06Z_MSC_RDPS_GeopotentialHeight_IsbL-1015_RLatLon0.09_PT034H.grib2 2026-05-02 08:48 419K
20260502T06Z_MSC_RDPS_Humidex_Sfc_RLatLon0.09_PT034H.grib2 2026-05-02 08:48 2.4M
20260502T06Z_MSC_RDPS_IcePellets-Accum1h_Sfc_RLatLon0.09_PT034H.grib2 2026-05-02 08:48 1.7K
20260502T06Z_MSC_RDPS_IcePellets-Accum_Sfc_RLatLon0.09_PT034H.grib2 2026-05-02 08:48 17K
20260502T06Z_MSC_RDPS_KIndex_Sfc_RLatLon0.09_PT034H.grib2 2026-05-02 08:48 2.4M
20260502T06Z_MSC_RDPS_LatentHeatNetFlux_Sfc_RLatLon0.09_PT034H.grib2 2026-05-02 08:48 308K
20260502T06Z_MSC_RDPS_LiftedIndex-MU-VT_IsbL-0500_RLatLon0.09_PT034H.grib2 2026-05-02 08:48 2.4M
20260502T06Z_MSC_RDPS_NetLongwaveRadiationFlux-Accum_Sfc_RLatLon0.09_PT034H.grib2 2026-05-02 08:48 503K
20260502T06Z_MSC_RDPS_NetShortwaveRadiationFlux-Accum_Sfc_RLatLon0.09_PT034H.grib2 2026-05-02 08:48 544K
20260502T06Z_MSC_RDPS_PlanetaryBoundaryLayerHeight_Sfc_RLatLon0.09_PT034H.grib2 2026-05-02 08:48 1.0M
20260502T06Z_MSC_RDPS_Precip-Accum1h_Sfc_RLatLon0.09_PT034H.grib2 2026-05-02 08:48 1.3M
20260502T06Z_MSC_RDPS_Precip-Accum_Sfc_RLatLon0.09_PT034H.grib2 2026-05-02 08:48 2.0M
20260502T06Z_MSC_RDPS_PrecipRate_Sfc_RLatLon0.09_PT034H.grib2 2026-05-02 08:48 184K
20260502T06Z_MSC_RDPS_PrecipType-Instant_Sfc_RLatLon0.09_PT034H.grib2 2026-05-02 08:48 572K
20260502T06Z_MSC_RDPS_Pressure-Trend3h_Sfc_RLatLon0.09_PT034H.grib2 2026-05-02 08:48 1.2M
20260502T06Z_MSC_RDPS_Pressure_MSL_RLatLon0.09_PT034H.grib2 2026-05-02 08:48 331K
20260502T06Z_MSC_RDPS_Pressure_PVU-1.5_RLatLon0.09_PT034H.grib2 2026-05-02 08:48 2.3M
20260502T06Z_MSC_RDPS_Pressure_PVU-1_RLatLon0.09_PT034H.grib2 2026-05-02 08:48 2.4M
20260502T06Z_MSC_RDPS_Pressure_PVU-2_RLatLon0.09_PT034H.grib2 2026-05-02 08:48 2.4M
20260502T06Z_MSC_RDPS_Pressure_Sfc_RLatLon0.09_PT034H.grib2 2026-05-02 08:48 501K
20260502T06Z_MSC_RDPS_RadiativeTemp_Sfc_RLatLon0.09_PT034H.grib2 2026-05-02 08:48 322K
20260502T06Z_MSC_RDPS_Rain-Accum1h_Sfc_RLatLon0.09_PT034H.grib2 2026-05-02 08:48 630K
20260502T06Z_MSC_RDPS_Rain-Accum_Sfc_RLatLon0.09_PT034H.grib2 2026-05-02 08:48 1.6M
20260502T06Z_MSC_RDPS_RelativeHumidity_AGL-2m_RLatLon0.09_PT034H.grib2 2026-05-02 08:48 1.0M
20260502T06Z_MSC_RDPS_RelativeHumidity_IsbL-0010_RLatLon0.09_PT034H.grib2 2026-05-02 08:48 636K
20260502T06Z_MSC_RDPS_RelativeHumidity_IsbL-0020_RLatLon0.09_PT034H.grib2 2026-05-02 08:48 673K
20260502T06Z_MSC_RDPS_RelativeHumidity_IsbL-0030_RLatLon0.09_PT034H.grib2 2026-05-02 08:48 606K
20260502T06Z_MSC_RDPS_RelativeHumidity_IsbL-0050_RLatLon0.09_PT034H.grib2 2026-05-02 08:48 359K
20260502T06Z_MSC_RDPS_RelativeHumidity_IsbL-0100_RLatLon0.09_PT034H.grib2 2026-05-02 08:48 383K
20260502T06Z_MSC_RDPS_RelativeHumidity_IsbL-0150_RLatLon0.09_PT034H.grib2 2026-05-02 08:48 419K
20260502T06Z_MSC_RDPS_RelativeHumidity_IsbL-0175_RLatLon0.09_PT034H.grib2 2026-05-02 08:48 479K
20260502T06Z_MSC_RDPS_RelativeHumidity_IsbL-0200_RLatLon0.09_PT034H.grib2 2026-05-02 08:48 554K
20260502T06Z_MSC_RDPS_RelativeHumidity_IsbL-0225_RLatLon0.09_PT034H.grib2 2026-05-02 08:48 620K
20260502T06Z_MSC_RDPS_RelativeHumidity_IsbL-0250_RLatLon0.09_PT034H.grib2 2026-05-02 08:48 682K
20260502T06Z_MSC_RDPS_RelativeHumidity_IsbL-0275_RLatLon0.09_PT034H.grib2 2026-05-02 08:48 707K
20260502T06Z_MSC_RDPS_RelativeHumidity_IsbL-0300_RLatLon0.09_PT034H.grib2 2026-05-02 08:48 748K
20260502T06Z_MSC_RDPS_RelativeHumidity_IsbL-0350_RLatLon0.09_PT034H.grib2 2026-05-02 08:48 775K
20260502T06Z_MSC_RDPS_RelativeHumidity_IsbL-0400_RLatLon0.09_PT034H.grib2 2026-05-02 08:48 786K
20260502T06Z_MSC_RDPS_RelativeHumidity_IsbL-0450_RLatLon0.09_PT034H.grib2 2026-05-02 08:48 788K
20260502T06Z_MSC_RDPS_RelativeHumidity_IsbL-0500_RLatLon0.09_PT034H.grib2 2026-05-02 08:48 792K
20260502T06Z_MSC_RDPS_RelativeHumidity_IsbL-0550_RLatLon0.09_PT034H.grib2 2026-05-02 08:48 809K
20260502T06Z_MSC_RDPS_RelativeHumidity_IsbL-0600_RLatLon0.09_PT034H.grib2 2026-05-02 08:48 825K
20260502T06Z_MSC_RDPS_RelativeHumidity_IsbL-0650_RLatLon0.09_PT034H.grib2 2026-05-02 08:48 839K
20260502T06Z_MSC_RDPS_RelativeHumidity_IsbL-0700_RLatLon0.09_PT034H.grib2 2026-05-02 08:48 875K
20260502T06Z_MSC_RDPS_RelativeHumidity_IsbL-0750_RLatLon0.09_PT034H.grib2 2026-05-02 08:48 919K
20260502T06Z_MSC_RDPS_RelativeHumidity_IsbL-0800_RLatLon0.09_PT034H.grib2 2026-05-02 08:48 1.0M
20260502T06Z_MSC_RDPS_RelativeHumidity_IsbL-0850_RLatLon0.09_PT034H.grib2 2026-05-02 08:48 1.0M
20260502T06Z_MSC_RDPS_RelativeHumidity_IsbL-0875_RLatLon0.09_PT034H.grib2 2026-05-02 08:48 1.1M
20260502T06Z_MSC_RDPS_RelativeHumidity_IsbL-0900_RLatLon0.09_PT034H.grib2 2026-05-02 08:48 1.1M
20260502T06Z_MSC_RDPS_RelativeHumidity_IsbL-0925_RLatLon0.09_PT034H.grib2 2026-05-02 08:48 1.1M
20260502T06Z_MSC_RDPS_RelativeHumidity_IsbL-0950_RLatLon0.09_PT034H.grib2 2026-05-02 08:48 1.1M
20260502T06Z_MSC_RDPS_RelativeHumidity_IsbL-0970_RLatLon0.09_PT034H.grib2 2026-05-02 08:48 1.1M
20260502T06Z_MSC_RDPS_RelativeHumidity_IsbL-0985_RLatLon0.09_PT034H.grib2 2026-05-02 08:48 1.0M
20260502T06Z_MSC_RDPS_RelativeHumidity_IsbL-1000_RLatLon0.09_PT034H.grib2 2026-05-02 08:48 1.0M
20260502T06Z_MSC_RDPS_RelativeHumidity_IsbL-1015_RLatLon0.09_PT034H.grib2 2026-05-02 08:48 1.0M
20260502T06Z_MSC_RDPS_Runoff-Accum_Sfc_RLatLon0.09_PT034H.grib2 2026-05-02 08:48 61K
20260502T06Z_MSC_RDPS_SWEATIndex_Sfc_RLatLon0.09_PT034H.grib2 2026-05-02 08:48 2.4M
20260502T06Z_MSC_RDPS_SeeingIndex_EAtm_RLatLon0.09_PT034H.grib2 2026-05-02 08:48 1.0M
20260502T06Z_MSC_RDPS_SensibleHeatNetFlux_Sfc_RLatLon0.09_PT034H.grib2 2026-05-02 08:48 366K
20260502T06Z_MSC_RDPS_ShowalterIndex_IsbL-0500_RLatLon0.09_PT034H.grib2 2026-05-02 08:48 2.6M
20260502T06Z_MSC_RDPS_SkyTransparencyIndex_EAtm_RLatLon0.09_PT034H.grib2 2026-05-02 08:48 718K
20260502T06Z_MSC_RDPS_Snow-Accum1h_Sfc_RLatLon0.09_PT034H.grib2 2026-05-02 08:48 520K
20260502T06Z_MSC_RDPS_Snow-Accum_Sfc_RLatLon0.09_PT034H.grib2 2026-05-02 08:48 725K
20260502T06Z_MSC_RDPS_SnowDensity_Sfc_RLatLon0.09_PT034H.grib2 2026-05-02 08:48 172K
20260502T06Z_MSC_RDPS_SnowDepth_Sfc_RLatLon0.09_PT034H.grib2 2026-05-02 08:48 654K
20260502T06Z_MSC_RDPS_SoilTemp_DBS-0to10cm_RLatLon0.09_PT034H.grib2 2026-05-02 08:48 231K
20260502T06Z_MSC_RDPS_SoilTemp_Sfc_RLatLon0.09_PT034H.grib2 2026-05-02 08:48 294K
20260502T06Z_MSC_RDPS_SoilVolumetricIceContent_Sfc_RLatLon0.09_PT034H.grib2 2026-05-02 08:48 157K
20260502T06Z_MSC_RDPS_SoilVolumetricWaterContent_DBS-0to10cm_RLatLon0.09_PT034H.grib2 2026-05-02 08:48 273K
20260502T06Z_MSC_RDPS_SoilVolumetricWaterContent_DBS-0to1cm_RLatLon0.09_PT034H.grib2 2026-05-02 08:48 341K
20260502T06Z_MSC_RDPS_SpecificHumidity_AGL-120m_RLatLon0.09_PT034H.grib2 2026-05-02 08:48 505K
20260502T06Z_MSC_RDPS_SpecificHumidity_AGL-2m_RLatLon0.09_PT034H.grib2 2026-05-02 08:48 675K
20260502T06Z_MSC_RDPS_SpecificHumidity_AGL-40m_RLatLon0.09_PT034H.grib2 2026-05-02 08:48 511K
20260502T06Z_MSC_RDPS_SpecificHumidity_AGL-80m_RLatLon0.09_PT034H.grib2 2026-05-02 08:48 508K
20260502T06Z_MSC_RDPS_SpecificHumidity_IsbL-0001_RLatLon0.09_PT034H.grib2 2026-05-02 08:48 369K
20260502T06Z_MSC_RDPS_SpecificHumidity_IsbL-0005_RLatLon0.09_PT034H.grib2 2026-05-02 08:48 368K
20260502T06Z_MSC_RDPS_SpecificHumidity_IsbL-0010_RLatLon0.09_PT034H.grib2 2026-05-02 08:48 400K
20260502T06Z_MSC_RDPS_SpecificHumidity_IsbL-0020_RLatLon0.09_PT034H.grib2 2026-05-02 08:48 380K
20260502T06Z_MSC_RDPS_SpecificHumidity_IsbL-0030_RLatLon0.09_PT034H.grib2 2026-05-02 08:48 374K
20260502T06Z_MSC_RDPS_SpecificHumidity_IsbL-0050_RLatLon0.09_PT034H.grib2 2026-05-02 08:48 456K
20260502T06Z_MSC_RDPS_SpecificHumidity_IsbL-0100_RLatLon0.09_PT034H.grib2 2026-05-02 08:48 423K
20260502T06Z_MSC_RDPS_SpecificHumidity_IsbL-0150_RLatLon0.09_PT034H.grib2 2026-05-02 08:48 458K
20260502T06Z_MSC_RDPS_SpecificHumidity_IsbL-0175_RLatLon0.09_PT034H.grib2 2026-05-02 08:48 542K
20260502T06Z_MSC_RDPS_SpecificHumidity_IsbL-0200_RLatLon0.09_PT034H.grib2 2026-05-02 08:48 455K
20260502T06Z_MSC_RDPS_SpecificHumidity_IsbL-0225_RLatLon0.09_PT034H.grib2 2026-05-02 08:48 455K
20260502T06Z_MSC_RDPS_SpecificHumidity_IsbL-0250_RLatLon0.09_PT034H.grib2 2026-05-02 08:48 558K
20260502T06Z_MSC_RDPS_SpecificHumidity_IsbL-0275_RLatLon0.09_PT034H.grib2 2026-05-02 08:48 473K
20260502T06Z_MSC_RDPS_SpecificHumidity_IsbL-0300_RLatLon0.09_PT034H.grib2 2026-05-02 08:48 446K
20260502T06Z_MSC_RDPS_SpecificHumidity_IsbL-0350_RLatLon0.09_PT034H.grib2 2026-05-02 08:48 542K
20260502T06Z_MSC_RDPS_SpecificHumidity_IsbL-0400_RLatLon0.09_PT034H.grib2 2026-05-02 08:48 522K
20260502T06Z_MSC_RDPS_SpecificHumidity_IsbL-0450_RLatLon0.09_PT034H.grib2 2026-05-02 08:48 568K
20260502T06Z_MSC_RDPS_SpecificHumidity_IsbL-0500_RLatLon0.09_PT034H.grib2 2026-05-02 08:48 502K
20260502T06Z_MSC_RDPS_SpecificHumidity_IsbL-0550_RLatLon0.09_PT034H.grib2 2026-05-02 08:48 573K
20260502T06Z_MSC_RDPS_SpecificHumidity_IsbL-0600_RLatLon0.09_PT034H.grib2 2026-05-02 08:48 621K
20260502T06Z_MSC_RDPS_SpecificHumidity_IsbL-0650_RLatLon0.09_PT034H.grib2 2026-05-02 08:48 538K
20260502T06Z_MSC_RDPS_SpecificHumidity_IsbL-0700_RLatLon0.09_PT034H.grib2 2026-05-02 08:48 585K
20260502T06Z_MSC_RDPS_SpecificHumidity_IsbL-0750_RLatLon0.09_PT034H.grib2 2026-05-02 08:48 642K
20260502T06Z_MSC_RDPS_SpecificHumidity_IsbL-0800_RLatLon0.09_PT034H.grib2 2026-05-02 08:48 729K
20260502T06Z_MSC_RDPS_SpecificHumidity_IsbL-0850_RLatLon0.09_PT034H.grib2 2026-05-02 08:48 810K
20260502T06Z_MSC_RDPS_SpecificHumidity_IsbL-0875_RLatLon0.09_PT034H.grib2 2026-05-02 08:48 837K
20260502T06Z_MSC_RDPS_SpecificHumidity_IsbL-0900_RLatLon0.09_PT034H.grib2 2026-05-02 08:48 852K
20260502T06Z_MSC_RDPS_SpecificHumidity_IsbL-0925_RLatLon0.09_PT034H.grib2 2026-05-02 08:48 711K
20260502T06Z_MSC_RDPS_SpecificHumidity_IsbL-0950_RLatLon0.09_PT034H.grib2 2026-05-02 08:48 716K
20260502T06Z_MSC_RDPS_SpecificHumidity_IsbL-0970_RLatLon0.09_PT034H.grib2 2026-05-02 08:48 710K
20260502T06Z_MSC_RDPS_SpecificHumidity_IsbL-0985_RLatLon0.09_PT034H.grib2 2026-05-02 08:48 705K
20260502T06Z_MSC_RDPS_SpecificHumidity_IsbL-1000_RLatLon0.09_PT034H.grib2 2026-05-02 08:48 699K
20260502T06Z_MSC_RDPS_SpecificHumidity_IsbL-1015_RLatLon0.09_PT034H.grib2 2026-05-02 08:48 689K
20260502T06Z_MSC_RDPS_SpecificHumidity_Sfc_RLatLon0.09_PT034H.grib2 2026-05-02 08:48 337K
20260502T06Z_MSC_RDPS_StormRelativeHelicity_EtaL-10000_RLatLon0.09_PT034H.grib2 2026-05-02 08:48 1.0M
20260502T06Z_MSC_RDPS_StormSeverityIndex_EtaL-10000_RLatLon0.09_PT034H.grib2 2026-05-02 08:48 1.2M
20260502T06Z_MSC_RDPS_Thickness_IsbL-0850to0700_RLatLon0.09_PT034H.grib2 2026-05-02 08:48 177K
20260502T06Z_MSC_RDPS_Thickness_IsbL-1000to0500_RLatLon0.09_PT034H.grib2 2026-05-02 08:48 198K
20260502T06Z_MSC_RDPS_Thickness_IsbL-1000to0850_RLatLon0.09_PT034H.grib2 2026-05-02 08:48 266K
20260502T06Z_MSC_RDPS_TotalCloudCover_Sfc_RLatLon0.09_PT034H.grib2 2026-05-02 08:48 657K
20260502T06Z_MSC_RDPS_TotalTotalsIndex_Sfc_RLatLon0.09_PT034H.grib2 2026-05-02 08:48 2.3M
20260502T06Z_MSC_RDPS_UVIndex-ClearSky_Sfc_RLatLon0.09_PT034H.grib2 2026-05-02 08:48 205K
20260502T06Z_MSC_RDPS_UVIndex_Sfc_RLatLon0.09_PT034H.grib2 2026-05-02 08:48 477K
20260502T06Z_MSC_RDPS_UpwardLongwaveRadiationFlux_NTAtm_RLatLon0.09_PT034H.grib2 2026-05-02 08:48 492K
20260502T06Z_MSC_RDPS_UpwardShortwaveRadiationFlux_NTAtm_RLatLon0.09_PT034H.grib2 2026-05-02 08:48 516K
20260502T06Z_MSC_RDPS_VerticalVelocity_IsbL-0250_RLatLon0.09_PT034H.grib2 2026-05-02 08:48 581K
20260502T06Z_MSC_RDPS_VerticalVelocity_IsbL-0500_RLatLon0.09_PT034H.grib2 2026-05-02 08:48 673K
20260502T06Z_MSC_RDPS_VerticalVelocity_IsbL-0700_RLatLon0.09_PT034H.grib2 2026-05-02 08:48 591K
20260502T06Z_MSC_RDPS_VerticalVelocity_IsbL-0850_RLatLon0.09_PT034H.grib2 2026-05-02 08:48 701K
20260502T06Z_MSC_RDPS_VerticalWindShear_EtaL-6500_RLatLon0.09_PT034H.grib2 2026-05-02 08:48 1.2M
20260502T06Z_MSC_RDPS_WindChill_Sfc_RLatLon0.09_PT034H.grib2 2026-05-02 08:48 1.2M
20260502T06Z_MSC_RDPS_WindDir_AGL-10m_RLatLon0.09_PT034H.grib2 2026-05-02 08:48 1.0M
20260502T06Z_MSC_RDPS_WindDir_AGL-120m_RLatLon0.09_PT034H.grib2 2026-05-02 08:48 622K
20260502T06Z_MSC_RDPS_WindDir_AGL-40m_RLatLon0.09_PT034H.grib2 2026-05-02 08:48 645K
20260502T06Z_MSC_RDPS_WindDir_AGL-80m_RLatLon0.09_PT034H.grib2 2026-05-02 08:48 632K
20260502T06Z_MSC_RDPS_WindDir_IsbL-0001_RLatLon0.09_PT034H.grib2 2026-05-02 08:48 299K
20260502T06Z_MSC_RDPS_WindDir_IsbL-0005_RLatLon0.09_PT034H.grib2 2026-05-02 08:48 381K
20260502T06Z_MSC_RDPS_WindDir_IsbL-0010_RLatLon0.09_PT034H.grib2 2026-05-02 08:48 384K
20260502T06Z_MSC_RDPS_WindDir_IsbL-0020_RLatLon0.09_PT034H.grib2 2026-05-02 08:48 446K
20260502T06Z_MSC_RDPS_WindDir_IsbL-0030_RLatLon0.09_PT034H.grib2 2026-05-02 08:48 429K
20260502T06Z_MSC_RDPS_WindDir_IsbL-0050_RLatLon0.09_PT034H.grib2 2026-05-02 08:48 429K
20260502T06Z_MSC_RDPS_WindDir_IsbL-0100_RLatLon0.09_PT034H.grib2 2026-05-02 08:48 415K
20260502T06Z_MSC_RDPS_WindDir_IsbL-0150_RLatLon0.09_PT034H.grib2 2026-05-02 08:48 414K
20260502T06Z_MSC_RDPS_WindDir_IsbL-0175_RLatLon0.09_PT034H.grib2 2026-05-02 08:48 431K
20260502T06Z_MSC_RDPS_WindDir_IsbL-0200_RLatLon0.09_PT034H.grib2 2026-05-02 08:48 448K
20260502T06Z_MSC_RDPS_WindDir_IsbL-0225_RLatLon0.09_PT034H.grib2 2026-05-02 08:48 456K
20260502T06Z_MSC_RDPS_WindDir_IsbL-0250_RLatLon0.09_PT034H.grib2 2026-05-02 08:48 459K
20260502T06Z_MSC_RDPS_WindDir_IsbL-0275_RLatLon0.09_PT034H.grib2 2026-05-02 08:48 483K
20260502T06Z_MSC_RDPS_WindDir_IsbL-0300_RLatLon0.09_PT034H.grib2 2026-05-02 08:48 482K
20260502T06Z_MSC_RDPS_WindDir_IsbL-0350_RLatLon0.09_PT034H.grib2 2026-05-02 08:48 501K
20260502T06Z_MSC_RDPS_WindDir_IsbL-0400_RLatLon0.09_PT034H.grib2 2026-05-02 08:48 520K
20260502T06Z_MSC_RDPS_WindDir_IsbL-0450_RLatLon0.09_PT034H.grib2 2026-05-02 08:48 526K
20260502T06Z_MSC_RDPS_WindDir_IsbL-0500_RLatLon0.09_PT034H.grib2 2026-05-02 08:48 536K
20260502T06Z_MSC_RDPS_WindDir_IsbL-0550_RLatLon0.09_PT034H.grib2 2026-05-02 08:48 545K
20260502T06Z_MSC_RDPS_WindDir_IsbL-0600_RLatLon0.09_PT034H.grib2 2026-05-02 08:48 563K
20260502T06Z_MSC_RDPS_WindDir_IsbL-0650_RLatLon0.09_PT034H.grib2 2026-05-02 08:48 601K
20260502T06Z_MSC_RDPS_WindDir_IsbL-0700_RLatLon0.09_PT034H.grib2 2026-05-02 08:48 641K
20260502T06Z_MSC_RDPS_WindDir_IsbL-0750_RLatLon0.09_PT034H.grib2 2026-05-02 08:48 689K
20260502T06Z_MSC_RDPS_WindDir_IsbL-0800_RLatLon0.09_PT034H.grib2 2026-05-02 08:48 762K
20260502T06Z_MSC_RDPS_WindDir_IsbL-0850_RLatLon0.09_PT034H.grib2 2026-05-02 08:48 855K
20260502T06Z_MSC_RDPS_WindDir_IsbL-0875_RLatLon0.09_PT034H.grib2 2026-05-02 08:48 894K
20260502T06Z_MSC_RDPS_WindDir_IsbL-0900_RLatLon0.09_PT034H.grib2 2026-05-02 08:48 912K
20260502T06Z_MSC_RDPS_WindDir_IsbL-0925_RLatLon0.09_PT034H.grib2 2026-05-02 08:48 922K
20260502T06Z_MSC_RDPS_WindDir_IsbL-0950_RLatLon0.09_PT034H.grib2 2026-05-02 08:48 921K
20260502T06Z_MSC_RDPS_WindDir_IsbL-0970_RLatLon0.09_PT034H.grib2 2026-05-02 08:48 928K
20260502T06Z_MSC_RDPS_WindDir_IsbL-0985_RLatLon0.09_PT034H.grib2 2026-05-02 08:48 938K
20260502T06Z_MSC_RDPS_WindDir_IsbL-1000_RLatLon0.09_PT034H.grib2 2026-05-02 08:48 953K
20260502T06Z_MSC_RDPS_WindDir_IsbL-1015_RLatLon0.09_PT034H.grib2 2026-05-02 08:48 969K
20260502T06Z_MSC_RDPS_WindGust-Max_AGL-10m_RLatLon0.09_PT034H.grib2 2026-05-02 08:48 1.0M
20260502T06Z_MSC_RDPS_WindGust-Min_AGL-10m_RLatLon0.09_PT034H.grib2 2026-05-02 08:48 1.0M
20260502T06Z_MSC_RDPS_WindGust_AGL-10m_RLatLon0.09_PT034H.grib2 2026-05-02 08:48 1.0M
20260502T06Z_MSC_RDPS_WindSpeed_AGL-10m_RLatLon0.09_PT034H.grib2 2026-05-02 08:48 849K
20260502T06Z_MSC_RDPS_WindSpeed_AGL-120m_RLatLon0.09_PT034H.grib2 2026-05-02 08:48 542K
20260502T06Z_MSC_RDPS_WindSpeed_AGL-40m_RLatLon0.09_PT034H.grib2 2026-05-02 08:48 545K
20260502T06Z_MSC_RDPS_WindSpeed_AGL-80m_RLatLon0.09_PT034H.grib2 2026-05-02 08:48 541K
20260502T06Z_MSC_RDPS_WindSpeed_IsbL-0001_RLatLon0.09_PT034H.grib2 2026-05-02 08:48 255K
20260502T06Z_MSC_RDPS_WindSpeed_IsbL-0005_RLatLon0.09_PT034H.grib2 2026-05-02 08:48 347K
20260502T06Z_MSC_RDPS_WindSpeed_IsbL-0010_RLatLon0.09_PT034H.grib2 2026-05-02 08:48 398K
20260502T06Z_MSC_RDPS_WindSpeed_IsbL-0020_RLatLon0.09_PT034H.grib2 2026-05-02 08:48 326K
20260502T06Z_MSC_RDPS_WindSpeed_IsbL-0030_RLatLon0.09_PT034H.grib2 2026-05-02 08:48 324K
20260502T06Z_MSC_RDPS_WindSpeed_IsbL-0050_RLatLon0.09_PT034H.grib2 2026-05-02 08:48 352K
20260502T06Z_MSC_RDPS_WindSpeed_IsbL-0100_RLatLon0.09_PT034H.grib2 2026-05-02 08:48 478K
20260502T06Z_MSC_RDPS_WindSpeed_IsbL-0150_RLatLon0.09_PT034H.grib2 2026-05-02 08:48 383K
20260502T06Z_MSC_RDPS_WindSpeed_IsbL-0175_RLatLon0.09_PT034H.grib2 2026-05-02 08:48 427K
20260502T06Z_MSC_RDPS_WindSpeed_IsbL-0200_RLatLon0.09_PT034H.grib2 2026-05-02 08:48 443K
20260502T06Z_MSC_RDPS_WindSpeed_IsbL-0225_RLatLon0.09_PT034H.grib2 2026-05-02 08:48 451K
20260502T06Z_MSC_RDPS_WindSpeed_IsbL-0250_RLatLon0.09_PT034H.grib2 2026-05-02 08:48 455K
20260502T06Z_MSC_RDPS_WindSpeed_IsbL-0275_RLatLon0.09_PT034H.grib2 2026-05-02 08:48 471K
20260502T06Z_MSC_RDPS_WindSpeed_IsbL-0300_RLatLon0.09_PT034H.grib2 2026-05-02 08:48 467K
20260502T06Z_MSC_RDPS_WindSpeed_IsbL-0350_RLatLon0.09_PT034H.grib2 2026-05-02 08:48 478K
20260502T06Z_MSC_RDPS_WindSpeed_IsbL-0400_RLatLon0.09_PT034H.grib2 2026-05-02 08:48 464K
20260502T06Z_MSC_RDPS_WindSpeed_IsbL-0450_RLatLon0.09_PT034H.grib2 2026-05-02 08:48 463K
20260502T06Z_MSC_RDPS_WindSpeed_IsbL-0500_RLatLon0.09_PT034H.grib2 2026-05-02 08:48 462K
20260502T06Z_MSC_RDPS_WindSpeed_IsbL-0550_RLatLon0.09_PT034H.grib2 2026-05-02 08:48 462K
20260502T06Z_MSC_RDPS_WindSpeed_IsbL-0600_RLatLon0.09_PT034H.grib2 2026-05-02 08:48 588K
20260502T06Z_MSC_RDPS_WindSpeed_IsbL-0650_RLatLon0.09_PT034H.grib2 2026-05-02 08:48 607K
20260502T06Z_MSC_RDPS_WindSpeed_IsbL-0700_RLatLon0.09_PT034H.grib2 2026-05-02 08:48 632K
20260502T06Z_MSC_RDPS_WindSpeed_IsbL-0750_RLatLon0.09_PT034H.grib2 2026-05-02 08:48 708K
20260502T06Z_MSC_RDPS_WindSpeed_IsbL-0800_RLatLon0.09_PT034H.grib2 2026-05-02 08:48 760K
20260502T06Z_MSC_RDPS_WindSpeed_IsbL-0850_RLatLon0.09_PT034H.grib2 2026-05-02 08:48 824K
20260502T06Z_MSC_RDPS_WindSpeed_IsbL-0875_RLatLon0.09_PT034H.grib2 2026-05-02 08:48 849K
20260502T06Z_MSC_RDPS_WindSpeed_IsbL-0900_RLatLon0.09_PT034H.grib2 2026-05-02 08:48 860K
20260502T06Z_MSC_RDPS_WindSpeed_IsbL-0925_RLatLon0.09_PT034H.grib2 2026-05-02 08:48 869K
20260502T06Z_MSC_RDPS_WindSpeed_IsbL-0950_RLatLon0.09_PT034H.grib2 2026-05-02 08:48 867K
20260502T06Z_MSC_RDPS_WindSpeed_IsbL-0970_RLatLon0.09_PT034H.grib2 2026-05-02 08:48 864K
20260502T06Z_MSC_RDPS_WindSpeed_IsbL-0985_RLatLon0.09_PT034H.grib2 2026-05-02 08:48 861K
20260502T06Z_MSC_RDPS_WindSpeed_IsbL-1000_RLatLon0.09_PT034H.grib2 2026-05-02 08:48 856K
20260502T06Z_MSC_RDPS_WindSpeed_IsbL-1015_RLatLon0.09_PT034H.grib2 2026-05-02 08:48 847K
20260502T06Z_MSC_RDPS_WindU_AGL-10m_RLatLon0.09_PT034H.grib2 2026-05-02 08:48 437K
20260502T06Z_MSC_RDPS_WindU_AGL-120m_RLatLon0.09_PT034H.grib2 2026-05-02 08:48 421K
20260502T06Z_MSC_RDPS_WindU_AGL-40m_RLatLon0.09_PT034H.grib2 2026-05-02 08:48 540K
20260502T06Z_MSC_RDPS_WindU_AGL-80m_RLatLon0.09_PT034H.grib2 2026-05-02 08:48 422K
20260502T06Z_MSC_RDPS_WindU_IsbL-0001_RLatLon0.09_PT034H.grib2 2026-05-02 08:48 294K
20260502T06Z_MSC_RDPS_WindU_IsbL-0005_RLatLon0.09_PT034H.grib2 2026-05-02 08:48 282K
20260502T06Z_MSC_RDPS_WindU_IsbL-0010_RLatLon0.09_PT034H.grib2 2026-05-02 08:48 297K
20260502T06Z_MSC_RDPS_WindU_IsbL-0020_RLatLon0.09_PT034H.grib2 2026-05-02 08:48 316K
20260502T06Z_MSC_RDPS_WindU_IsbL-0030_RLatLon0.09_PT034H.grib2 2026-05-02 08:48 355K
20260502T06Z_MSC_RDPS_WindU_IsbL-0050_RLatLon0.09_PT034H.grib2 2026-05-02 08:48 380K
20260502T06Z_MSC_RDPS_WindU_IsbL-0100_RLatLon0.09_PT034H.grib2 2026-05-02 08:48 433K
20260502T06Z_MSC_RDPS_WindU_IsbL-0150_RLatLon0.09_PT034H.grib2 2026-05-02 08:48 397K
20260502T06Z_MSC_RDPS_WindU_IsbL-0175_RLatLon0.09_PT034H.grib2 2026-05-02 08:48 418K
20260502T06Z_MSC_RDPS_WindU_IsbL-0200_RLatLon0.09_PT034H.grib2 2026-05-02 08:48 337K
20260502T06Z_MSC_RDPS_WindU_IsbL-0225_RLatLon0.09_PT034H.grib2 2026-05-02 08:48 343K
20260502T06Z_MSC_RDPS_WindU_IsbL-0250_RLatLon0.09_PT034H.grib2 2026-05-02 08:48 344K
20260502T06Z_MSC_RDPS_WindU_IsbL-0275_RLatLon0.09_PT034H.grib2 2026-05-02 08:48 359K
20260502T06Z_MSC_RDPS_WindU_IsbL-0300_RLatLon0.09_PT034H.grib2 2026-05-02 08:48 355K
20260502T06Z_MSC_RDPS_WindU_IsbL-0350_RLatLon0.09_PT034H.grib2 2026-05-02 08:48 466K
20260502T06Z_MSC_RDPS_WindU_IsbL-0400_RLatLon0.09_PT034H.grib2 2026-05-02 08:48 468K
20260502T06Z_MSC_RDPS_WindU_IsbL-0450_RLatLon0.09_PT034H.grib2 2026-05-02 08:48 468K
20260502T06Z_MSC_RDPS_WindU_IsbL-0500_RLatLon0.09_PT034H.grib2 2026-05-02 08:48 467K
20260502T06Z_MSC_RDPS_WindU_IsbL-0550_RLatLon0.09_PT034H.grib2 2026-05-02 08:48 468K
20260502T06Z_MSC_RDPS_WindU_IsbL-0600_RLatLon0.09_PT034H.grib2 2026-05-02 08:48 476K
20260502T06Z_MSC_RDPS_WindU_IsbL-0650_RLatLon0.09_PT034H.grib2 2026-05-02 08:48 477K
20260502T06Z_MSC_RDPS_WindU_IsbL-0700_RLatLon0.09_PT034H.grib2 2026-05-02 08:48 515K
20260502T06Z_MSC_RDPS_WindU_IsbL-0750_RLatLon0.09_PT034H.grib2 2026-05-02 08:48 543K
20260502T06Z_MSC_RDPS_WindU_IsbL-0800_RLatLon0.09_PT034H.grib2 2026-05-02 08:48 573K
20260502T06Z_MSC_RDPS_WindU_IsbL-0850_RLatLon0.09_PT034H.grib2 2026-05-02 08:48 637K
20260502T06Z_MSC_RDPS_WindU_IsbL-0875_RLatLon0.09_PT034H.grib2 2026-05-02 08:48 657K
20260502T06Z_MSC_RDPS_WindU_IsbL-0900_RLatLon0.09_PT034H.grib2 2026-05-02 08:48 666K
20260502T06Z_MSC_RDPS_WindU_IsbL-0925_RLatLon0.09_PT034H.grib2 2026-05-02 08:48 671K
20260502T06Z_MSC_RDPS_WindU_IsbL-0950_RLatLon0.09_PT034H.grib2 2026-05-02 08:48 661K
20260502T06Z_MSC_RDPS_WindU_IsbL-0970_RLatLon0.09_PT034H.grib2 2026-05-02 08:48 660K
20260502T06Z_MSC_RDPS_WindU_IsbL-0985_RLatLon0.09_PT034H.grib2 2026-05-02 08:48 658K
20260502T06Z_MSC_RDPS_WindU_IsbL-1000_RLatLon0.09_PT034H.grib2 2026-05-02 08:48 794K
20260502T06Z_MSC_RDPS_WindU_IsbL-1015_RLatLon0.09_PT034H.grib2 2026-05-02 08:48 788K
20260502T06Z_MSC_RDPS_WindV_AGL-10m_RLatLon0.09_PT034H.grib2 2026-05-02 08:48 438K
20260502T06Z_MSC_RDPS_WindV_AGL-120m_RLatLon0.09_PT034H.grib2 2026-05-02 08:48 420K
20260502T06Z_MSC_RDPS_WindV_AGL-40m_RLatLon0.09_PT034H.grib2 2026-05-02 08:48 541K
20260502T06Z_MSC_RDPS_WindV_AGL-80m_RLatLon0.09_PT034H.grib2 2026-05-02 08:48 421K
20260502T06Z_MSC_RDPS_WindV_IsbL-0001_RLatLon0.09_PT034H.grib2 2026-05-02 08:48 247K
20260502T06Z_MSC_RDPS_WindV_IsbL-0005_RLatLon0.09_PT034H.grib2 2026-05-02 08:48 372K
20260502T06Z_MSC_RDPS_WindV_IsbL-0010_RLatLon0.09_PT034H.grib2 2026-05-02 08:48 390K
20260502T06Z_MSC_RDPS_WindV_IsbL-0020_RLatLon0.09_PT034H.grib2 2026-05-02 08:48 320K
20260502T06Z_MSC_RDPS_WindV_IsbL-0030_RLatLon0.09_PT034H.grib2 2026-05-02 08:48 318K
20260502T06Z_MSC_RDPS_WindV_IsbL-0050_RLatLon0.09_PT034H.grib2 2026-05-02 08:48 345K
20260502T06Z_MSC_RDPS_WindV_IsbL-0100_RLatLon0.09_PT034H.grib2 2026-05-02 08:48 431K
20260502T06Z_MSC_RDPS_WindV_IsbL-0150_RLatLon0.09_PT034H.grib2 2026-05-02 08:48 398K
20260502T06Z_MSC_RDPS_WindV_IsbL-0175_RLatLon0.09_PT034H.grib2 2026-05-02 08:48 420K
20260502T06Z_MSC_RDPS_WindV_IsbL-0200_RLatLon0.09_PT034H.grib2 2026-05-02 08:48 337K
20260502T06Z_MSC_RDPS_WindV_IsbL-0225_RLatLon0.09_PT034H.grib2 2026-05-02 08:48 367K
20260502T06Z_MSC_RDPS_WindV_IsbL-0250_RLatLon0.09_PT034H.grib2 2026-05-02 08:48 369K
20260502T06Z_MSC_RDPS_WindV_IsbL-0275_RLatLon0.09_PT034H.grib2 2026-05-02 08:48 381K
20260502T06Z_MSC_RDPS_WindV_IsbL-0300_RLatLon0.09_PT034H.grib2 2026-05-02 08:48 378K
20260502T06Z_MSC_RDPS_WindV_IsbL-0350_RLatLon0.09_PT034H.grib2 2026-05-02 08:48 360K
20260502T06Z_MSC_RDPS_WindV_IsbL-0400_RLatLon0.09_PT034H.grib2 2026-05-02 08:48 362K
20260502T06Z_MSC_RDPS_WindV_IsbL-0450_RLatLon0.09_PT034H.grib2 2026-05-02 08:48 362K
20260502T06Z_MSC_RDPS_WindV_IsbL-0500_RLatLon0.09_PT034H.grib2 2026-05-02 08:48 362K
20260502T06Z_MSC_RDPS_WindV_IsbL-0550_RLatLon0.09_PT034H.grib2 2026-05-02 08:48 467K
20260502T06Z_MSC_RDPS_WindV_IsbL-0600_RLatLon0.09_PT034H.grib2 2026-05-02 08:48 473K
20260502T06Z_MSC_RDPS_WindV_IsbL-0650_RLatLon0.09_PT034H.grib2 2026-05-02 08:48 489K
20260502T06Z_MSC_RDPS_WindV_IsbL-0700_RLatLon0.09_PT034H.grib2 2026-05-02 08:48 512K
20260502T06Z_MSC_RDPS_WindV_IsbL-0750_RLatLon0.09_PT034H.grib2 2026-05-02 08:48 539K
20260502T06Z_MSC_RDPS_WindV_IsbL-0800_RLatLon0.09_PT034H.grib2 2026-05-02 08:48 582K
20260502T06Z_MSC_RDPS_WindV_IsbL-0850_RLatLon0.09_PT034H.grib2 2026-05-02 08:48 636K
20260502T06Z_MSC_RDPS_WindV_IsbL-0875_RLatLon0.09_PT034H.grib2 2026-05-02 08:48 658K
20260502T06Z_MSC_RDPS_WindV_IsbL-0900_RLatLon0.09_PT034H.grib2 2026-05-02 08:48 664K
20260502T06Z_MSC_RDPS_WindV_IsbL-0925_RLatLon0.09_PT034H.grib2 2026-05-02 08:48 664K
20260502T06Z_MSC_RDPS_WindV_IsbL-0950_RLatLon0.09_PT034H.grib2 2026-05-02 08:48 661K
20260502T06Z_MSC_RDPS_WindV_IsbL-0970_RLatLon0.09_PT034H.grib2 2026-05-02 08:48 659K
20260502T06Z_MSC_RDPS_WindV_IsbL-0985_RLatLon0.09_PT034H.grib2 2026-05-02 08:48 657K
20260502T06Z_MSC_RDPS_WindV_IsbL-1000_RLatLon0.09_PT034H.grib2 2026-05-02 08:48 793K
20260502T06Z_MSC_RDPS_WindV_IsbL-1015_RLatLon0.09_PT034H.grib2 2026-05-02 08:48 787K